Starlink 5931

operational
NORAD ID: 56785 Int'l Des: 2023-078 Owner: SPXS Country: US Constellation: starlink
LEOCIRCULAR

Über Starlink 5931

Beschreibung wird geladen...

Live-Position

3D-Globus wird geladen...

Nächste Überflüge

Höhenverlauf

Altitude vs Time

uPlot chart will show altitude changes over time

Zweizeiliger Elementsatz

1 56785U 23078U 25354.82304007 .00000467 00000-0 46922-4 0 9998
2 56785 69.9983 183.4295 0002722 273.6109 86.4739 14.98329700141556
Epoch: 20. Dez. 2025 • Age: 6 hours

Aktueller Status

Höhe 587.3 km
Geschwindigkeit 7.57 km/s
Subsatellitenpunkt -44.54°S, 89.8°W
Startdatum 31. Mai 2023
Alter 2.5 years
Typ internet

Technische Details

Klassifizierung Payload
Masse 305.00 kg
Trockenmasse 290.00 kg
Gesamtmasse 305.00 kg
Länge 0.20 m
Durchmesser 2.80 m
Spannweite 9.00 m
Form Box + pan
Hersteller SPXS
Bus-Typ Starlink
Phasenstatus In Orbit
Besitzer/Staat SPXS/US

Große Konstellationen

Loading constellations...